Location: Unspecified
(41.1637°N, 24.2901°E)
Time: 05:34:12
(UTC+02:00)

ISS - Visible Passes

Search period start: 03 October 2023 00:00
Search period end: 13 October 2023 00:00
Orbit: 414 x 421 km, 51.6° (Epoch: 02 October)

Date Brightness Start Highest point End Pass type
(mag) Time Alt. Az. Time Alt. Az. Time Alt. Az.
03 Oct -2.4 19:20:58 10° WNW 19:24:04 36° SW 19:26:04 18° SSE visible
04 Oct -3.4 18:32:40 10° WNW 18:35:59 65° SW 18:39:18 10° SE visible
05 Oct -0.8 19:22:33 10° W 19:24:09 13° SW 19:25:45 10° SSW visible
06 Oct -1.3 18:33:27 10° W 18:36:06 22° SW 18:38:45 10° S visible
